CW7283 Weather Reports


Display with metric or nautical units.
time (UTC)temp
F
wind
direction
speed
MPH
gust
MPH
rain 1hr
in
rain 24hr
in
rain mn
in
humidity
%
barometer
mb
20210927051825 58 195 0.0 0.0 0.00 0.00 0.00 39 1012.6
20210927050341 57 195 0.0 0.0 0.00 0.00 0.00 44 1012.6
20210927023334 66 195 0.0 0.0 0.00 0.00 0.00 31 1012.0
20210927021844 68 195 0.0 0.0 0.00 0.00 0.00 30 1011.9
20210927020342 70 195 0.0 0.0 0.00 0.00 0.00 26 1011.7
20210927014837 71 195 0.0 4.0 0.00 0.00 0.00 24 1011.5
20210927013344 72 195 0.0 0.0 0.00 0.00 0.00 25 1011.4
20210927011849 74 195 0.0 0.0 0.00 0.00 0.00 25 1011.0
20210927010341 77 195 0.0 0.0 0.00 0.00 0.00 23 1010.9
20210927004829 79 195 0.0 0.0 0.00 0.00 0.00 21 1010.9
20210927003338 82 195 0.0 0.0 0.00 0.00 0.00 20 1010.9
20210927001841 83 195 0.0 0.0 0.00 0.00 0.00 18 1010.9
20210927000326 84 195 0.0 0.0 0.00 0.00 0.00 16 1010.7
20210926234839 85 195 0.0 0.0 0.00 0.00 0.00 17 1010.5
20210926233354 87 195 0.0 0.0 0.00 0.00 0.00 15 1010.5
20210926231845 88 195 0.0 3.0 0.00 0.00 0.00 16 1010.4
20210926230333 89 195 0.0 4.0 0.00 0.00 0.00 15 1010.4
20210926224835 89 195 0.0 2.0 0.00 0.00 0.00 15 1010.3
20210926223325 90 195 0.0 1.0 0.00 0.00 0.00 15 1010.3
20210926221834 90 195 0.0 2.0 0.00 0.00 0.00 16 1010.2
20210926220331 90 195 2.0 7.0 0.00 0.00 0.00 14 1010.1
20210926214831 91 195 1.0 4.0 0.00 0.00 0.00 15 1010.2
20210926213359 91 195 0.0 5.0 0.00 0.00 0.00 17 1010.3
20210926211837 90 195 0.0 5.0 0.00 0.00 0.00 16 1010.3
20210926210354 90 195 0.0 1.0 0.00 0.00 0.00 15 1010.4
20210926204853 90 195 0.0 4.0 0.00 0.00 0.00 16 1010.4
20210926203329 90 195 0.0 2.0 0.00 0.00 0.00 15 1010.6
20210926201851 89 195 1.0 4.0 0.00 0.00 0.00 18 1010.9
20210926200335 89 195 0.0 4.0 0.00 0.00 0.00 18 1010.9
20210926194826 89 195 1.0 6.0 0.00 0.00 0.00 17 1011.1
20210926193326 88 195 0.0 6.0 0.00 0.00 0.00 18 1011.4
20210926191840 87 195 0.0 1.0 0.00 0.00 0.00 18 1011.6
20210926190330 86 195 1.0 5.0 0.00 0.00 0.00 19 1012.0
20210926184838 86 195 0.0 0.0 0.00 0.00 0.00 19 1012.1
20210926183329 85 195 1.0 5.0 0.00 0.00 0.00 18 1012.4
20210926181830 86 195 0.0 0.0 0.00 0.00 0.00 19 1012.7
20210926180333 84 195 0.0 1.0 0.00 0.00 0.00 20 1012.8
20210926174831 84 195 0.0 0.0 0.00 0.00 0.00 21 1013.1
20210926173341 83 195 0.0 0.0 0.00 0.00 0.00 21 1013.2
20210926171850 82 195 0.0 0.0 0.00 0.00 0.00 21 1013.3
20210926170348 80 195 0.0 0.0 0.00 0.00 0.00 22 1013.4
20210926164831 79 195 0.0 2.0 0.00 0.00 0.00 25 1013.6
20210926163348 77 195 0.0 1.0 0.00 0.00 0.00 26 1013.7
20210926161833 75 195 0.0 0.0 0.00 0.00 0.00 29 1013.9
20210926160339 72 195 0.0 0.0 0.00 0.00 0.00 30 1013.9
20210926154827 69 195 0.0 0.0 0.00 0.00 0.00 34 1013.9
20210926153331 66 195 0.0 0.0 0.00 0.00 0.00 41 1013.9
20210926151836 62 195 0.0 0.0 0.00 0.00 0.00 45 1013.9
20210926150350 60 195 0.0 0.0 0.00 0.00 0.00 51 1013.9
20210926144831 58 195 0.0 0.0 0.00 0.00 0.00 55 1013.9
20210926143357 57 195 0.0 0.0 0.00 0.00 0.00 52 1013.9
20210926141841 55 195 0.0 0.0 0.00 0.00 0.00 53 1013.9
20210926140341 54 195 0.0 0.0 0.00 0.00 0.00 53 1013.8
20210926134842 52 195 0.0 0.0 0.00 0.00 0.00 55 1013.7
20210926133340 51 195 0.0 0.0 0.00 0.00 0.00 56 1013.7
20210926131830 51 195 0.0 0.0 0.00 0.00 0.00 57 1013.5
20210926130338 50 195 0.0 0.0 0.00 0.00 0.00 59 1013.4
20210926124849 51 195 0.0 0.0 0.00 0.00 0.00 60 1013.4
20210926123340 52 195 0.0 0.0 0.00 0.00 0.00 54 1013.3
20210926121844 52 195 0.0 0.0 0.00 0.00 0.00 54 1013.3
20210926120353 52 195 0.0 0.0 0.00 0.00 0.00 54 1013.2
20210926114844 53 195 0.0 0.0 0.00 0.00 0.00 52 1013.2
20210926113341 52 195 0.0 0.0 0.00 0.00 0.00 54 1013.2
20210926111844 52 195 0.0 0.0 0.00 0.00 0.00 55 1013.1
20210926110338 52 195 0.0 0.0 0.00 0.00 0.00 55 1013.0
20210926104840 52 195 0.0 0.0 0.00 0.00 0.00 56 1012.8
20210926103343 52 195 0.0 0.0 0.00 0.00 0.00 56 1012.8
20210926101826 53 195 0.0 0.0 0.00 0.00 0.00 55 1012.7
20210926100342 56 195 0.0 0.0 0.00 0.00 0.00 50 1012.7
20210926094843 55 195 0.0 0.0 0.00 0.00 0.00 46 1012.7
20210926093332 54 195 0.0 0.0 0.00 0.00 0.00 50 1012.7
20210926091832 54 195 0.0 0.0 0.00 0.00 0.00 52 1012.7
20210926090400 53 195 0.0 0.0 0.00 0.00 0.00 54 1012.7
20210926084857 54 195 0.0 0.0 0.00 0.00 0.00 53 1012.7
20210926083336 55 195 0.0 0.0 0.00 0.00 0.00 48 1012.7
20210926081850 56 195 0.0 0.0 0.00 0.00 0.00 47 1012.6
20210926080352 55 195 0.0 0.0 0.00 0.00 0.00 49 1012.6
20210926074835 55 195 0.0 0.0 0.00 0.00 0.00 48 1012.4
20210926073343 55 195 0.0 0.0 0.00 0.00 0.00 49 1012.3
20210926071842 55 195 0.0 0.0 0.00 0.00 0.00 49 1012.4
20210926070342 55 195 0.0 0.0 0.00 0.00 0.00 50 1012.3
20210926064837 56 195 0.0 0.0 0.00 0.00 0.00 49 1012.3
20210926063324 56 195 0.0 0.0 0.00 0.00 0.00 48 1012.3
20210926061849 56 195 0.0 0.0 0.00 0.00 0.00 49 1012.1
20210926060344 56 195 0.0 0.0 0.00 0.00 0.00 52 1012.2
20210926054851 56 195 0.0 0.0 0.00 0.00 0.00 49 1012.1
20210926053330 57 195 0.0 0.0 0.00 0.00 0.00 47 1012.1